Skip Page Navigation
NASA JPL Caltech
NASA Logo - Jet Propulsion Laboratory + View the NASA Portal
+ Center for Near-Earth Object Studies
JPL Home Earth Solar System Stars & Galaxies Technology
JPL Solar System Dynamics
BODIES ORBITS EPHEMERIDES TOOLS PHYSICAL DATA DISCOVERY FAQ SITE MAP
JPL Small-Body Database Browser
Search: [ help ]  
362615 (2011 RY17)
Classification: Main-belt Asteroid          SPK-ID: 2362615
Ephemeris | Orbit Diagram | Orbital Elements | Mission Design | Physical Parameters | Discovery Circumstances ]

[ show orbit diagram ]
Orbital Elements at Epoch 2459200.5 (2020-Dec-17.0) TDB
Reference: JPL 13 (heliocentric ecliptic J2000)
 Element Value Uncertainty (1-sigma)   Units 
e .164086683381531 5.9209e-08  
a 2.699640655916821 2.7261e-08 au
q 2.256665574365489 1.727e-07 au
i 10.97534935309081 7.8778e-06 deg
node 200.9962058025886 2.6057e-05 deg
peri 239.1102955181734 3.6241e-05 deg
M 330.9972529973003 2.2434e-05 deg
tp 2459331.025089625411
(2021-Apr-26.52508963)
0.00010106 TDB
period 1620.15798919924
4.44
2.4541e-05
6.719e-08
d
yr
n .2222005522917733 3.3657e-09 deg/d
Q 3.142615737468153 3.1735e-08 au
  Orbit Determination Parameters
   # obs. used (total)      161  
   data-arc span      4820 days (13.20 yr)  
   first obs. used      2007-11-02  
   last obs. used      2021-01-12  
   planetary ephem.      DE441  
   SB-pert. ephem.      SB441-N16  
   condition code      0  
   norm. resid. RMS      .56174  
   source      ORB  
   producer      Otto Matic  
   solution date      2021-Apr-14 09:40:10  

Additional Information
 Earth MOID = 1.29311 au 
 Jupiter MOID = 2.23121 au 
 T_jup = 3.323 
[ show covariance matrix ]

Ephemeris | Orbit Diagram | Orbital Elements | Mission Design | Physical Parameters | Discovery Circumstances ]

Physical Parameter Table
Parameter Symbol Value Units Sigma Reference Notes
absolute magnitude H 17.20   n/a MPCxxxxx  

362615 (2011 RY17)          Discovered 2007-Nov-02 by Spacewatch at Kitt Peak
Reference: Last Updated: 2013-04-29

Alternate Designations
 2011 RY17 = 2007 VC27 
Ephemeris | Orbit Diagram | Orbital Elements | Mission Design | Physical Parameters | Discovery Circumstances ]
ABOUT SSD CREDITS/AWARDS PRIVACY/COPYRIGHT GLOSSARY LINKS
FirstGov 2021-Jun-24 16:49 UT
(server date/time)  
NASA Home Page
Site Manager:   Ryan S. Park
Webmaster  Alan B. Chamberlin